Página principal
METAR-TAF:

METAR-TAF

Aeroportos :

Aeroporto das Flores

Flores, Açores, Portugal

latitude: 39-27N, longitude: 031-08W, altura: 28 m

Observação actual do tempo

O boletim foi feito há 46 minutos, às 11:00 UTC
Vento 6 kt de su-sudeste, variando entre es-sudeste e sul
Temperatura 22°C
Humidade 69%
Pressão 1026 hPa
Visibilidade 10 km ou mais
Poucas nuvensa uma altura de 2800 ft

METAR: LPFL 301100Z 16006KT 120V180 9999 FEW028 22/16 Q1026

Hora: 11:46 (11:46 UTC)


TAF: em falta

Observações e previsões do tempo de mais de 4000 aeroportos (mensagens METAR e TAF).

As estações disponíveis são os pontos amarelos e vermelhos sobre o mapa.

Mova o rato sobre o mapa para ver o nome da estação.

Depois clique no ponto para visualizar as observações e previsões meteorológicas.

Para alterar o mapa : clique nos botões verdes com uma cruz preta para aumentar o zoom; no botão verde com uma pitada de zoom; ou nas setas verdes para mapas adjacentes.


METAR-TAF: